Notices

What's New in latest Release from April 7th, 2021:

- Updated Glossary, including Speed of Maximum Gust, and Total Hourly Precipitation

- Updated national and regional climate services offices contacts and prices information

- Addition of station inventory lists for 1981-2010, 1971-2000, and 1961-1990 Normals.

If you haven't already, please take our survey and provide feedback about our website: https://eccc.sondage-survey.ca/f/LanguageSelection.aspx?s=442ca660-fcf1-47c0-95a9-59707d6fd709

Hourly Data Report for December 03, 2004

TORONTO CITY
ONTARIO

43°40'00.000" N
79°24'00.000" W
112.50 m
6158355
71508
XTO

Download Data

Hourly Data (December 2004)
Hourly Data Report for December 3, 2004
TIME
LST
Temp Definition
°C
Dew Point Definition
°C
Rel Hum Definition
%
Precip. Amount Definition
mm

Wind Dir Definition
10's deg

Wind Spd Definition
km/h
Visibility Definition
km
Stn Press Definition
kPa
Hmdx Definition


Wind Chill Definition


Weather Definition


00:00 2.0 -0.8 82   LegendMM LegendMM LegendMM 99.41     LegendNANA
01:00 2.4 -0.5 81   LegendMM LegendMM LegendMM 99.32     LegendNANA
02:00 2.6 0.7 87   LegendMM LegendMM LegendMM 99.24     LegendNANA
03:00 2.5 0.6 87   LegendMM LegendMM LegendMM 99.16     LegendNANA
04:00 2.5 -0.2 82   LegendMM LegendMM LegendMM 99.09     LegendNANA
05:00 2.4 0.0 84   LegendMM LegendMM LegendMM 99.04     LegendNANA
06:00 1.9 0.0 87   LegendMM LegendMM LegendMM 99.00     LegendNANA
07:00 1.5 -3.5 69   LegendMM LegendMM LegendMM 99.15     LegendNANA
08:00 0.1 -4.6 71   LegendMM LegendMM LegendMM 99.27     LegendNANA
09:00 -0.2 -5.1 69   LegendMM LegendMM LegendMM 99.44     LegendNANA
10:00 -0.4 -6.8 62   LegendMM LegendMM LegendMM 99.60     LegendNANA
11:00 -0.3 -7.4 59   LegendMM LegendMM LegendMM 99.69     LegendNANA
12:00 -0.5 -7.1 61   LegendMM LegendMM LegendMM 99.79     LegendNANA
13:00 0.4 -7.6 55   LegendMM LegendMM LegendMM 99.85     LegendNANA
14:00 -0.2 -9.5 49   LegendMM LegendMM LegendMM 99.93     LegendNANA
15:00 -0.9 -9.4 52   LegendMM LegendMM LegendMM 100.01     LegendNANA
16:00 -1.2 -9.5 53   LegendMM LegendMM LegendMM 100.10     LegendNANA
17:00 -2.0 -9.6 56   LegendMM LegendMM LegendMM 100.13     LegendNANA
18:00 -2.6 -10.0 57   LegendMM LegendMM LegendMM 100.21     LegendNANA
19:00 -3.0 -9.7 60   LegendMM LegendMM LegendMM 100.25     LegendNANA
20:00 -3.3 -9.5 62   LegendMM LegendMM LegendMM 100.27     LegendNANA
21:00 -3.2 -9.2 63   LegendMM LegendMM LegendMM 100.28     LegendNANA
22:00 -2.7 -9.0 62   LegendMM LegendMM LegendMM 100.26     LegendNANA
23:00 -2.6 -9.2 60   LegendMM LegendMM LegendMM 100.21     LegendNANA

Notes on Data Quality.

Legend

  • E = Estimated
  • M = Missing
  • NA = Not Available*
  • [empty] = Indicates an unobserved value
Date modified: